Location: CCZU
(31.6840°N, 119.9550°E)
Time: 16:09:10
(UTC+08:00)

Tiangong - Pass Details

Date: 13 December 2021
Orbit: 381 x 387 km, 41.5° (Epoch: 27 January)

Event Time Altitude Azimuth Distance (km) Brightness Sun altitude
Rises 17:22:21 0° 282° (WNW) 2,283 6.0 -5.6°
Reaches altitude 10° 17:24:54 10° 303° (WNW) 1,426 4.4 -6.1°
Maximum altitude 17:27:11 18° 348° (NNW) 1,058 3.2 -6.5°
Drops below altitude 10° 17:29:27 10° 33° (NNE) 1,424 3.4 -7.0°
Enters shadow 17:30:09 - 41° (NE) 1,632 3.7 -7.1°
